Kerrville, TX

7:42 AM CDT on September 25, 2017 (GMT -0500)
Kerrville Municipal-Schreiner

Weather History for KERV - April, 2014

Change the Weather History Date:

Tuesday, April 8, 2014

  Actual Average (KHDO) Record (KHDO)
Temperature  
Mean Temperature 59 °F -  
Max Temperature 76 °F 76 °F 100 °F (2011)
Min Temperature 42 °F 53 °F 36 °F (2007)
Degree Days  
Heating Degree Days 6    
Growing Degree Days 9 (Base 50)    
Moisture  
Dew Point 32 °F    
Average Humidity 46    
Maximum Humidity 91    
Minimum Humidity 13    
Precipitation  
Precipitation 0.03 in - - ()
Sea Level Pressure  
Sea Level Pressure 30.18 in    
Wind  
Wind Speed 7 mph (NNW)    
Max Wind Speed 22 mph    
Max Gust Speed 30 mph    
Visibility 10 miles    
Events      
Averages and records for this station are not official NWS values.
T = Trace of Precipitation, MM = Missing Value Source: NWS Daily Summary

Daily Weather History Graph

Daily Weather History Graph

Search for Another Location

Airport or City:

Trip Planner

Search our weather history database for the weather conditions in past years. The results will help you decide how hot, cold, wet, or windy it might be!

Date:

Astronomy

Apr. 08, 2014 Rise Set
Actual Time 7:17 AM CDT 7:59 PM CDT
Civil Twilight 6:53 AM CDT 8:23 PM CDT
Nautical Twilight 6:24 AM CDT 8:52 PM CDT
Astronomical Twilight 5:55 AM CDT 9:21 PM CDT
Moon 2:18 PM CDT (4/8) 3:06 AM CDT (4/8)
Length of Visible Light 13h 30m
Length of Day
12h 41m
Waxing Gibbous, 63% of the Moon is Illuminated
Apr 8
Waxing Gibbous
Apr 15
Full
Apr 22
Last Quarter
Apr 29
New
May 6
First Quarter

Hourly Weather History & Observations

Time (CDT) Temp. Windchill Dew Point Humidity Pressure Visibility Wind Dir Wind Speed Gust Speed Precip Events Conditions
12:15 AM 48.6 °F - 44.1 °F 84% 30.12 in 10.0 mi WNW 5.8 mph - N/A   Clear
12:35 AM 46.0 °F - 42.3 °F 87% 30.12 in 10.0 mi Calm Calm - N/A   Clear
1:15 AM 47.3 °F - 43.3 °F 86% 30.11 in 10.0 mi Calm Calm - N/A   Clear
1:35 AM 46.8 °F - 43.0 °F 87% 30.11 in 10.0 mi WNW 4.6 mph - N/A   Clear
1:55 AM 46.2 °F 45.0 °F 42.8 °F 88% 30.11 in 10.0 mi WNW 3.5 mph - N/A   Clear
2:15 AM 45.5 °F 43.2 °F 42.1 °F 88% 30.12 in 10.0 mi NNW 4.6 mph - N/A   Clear
2:35 AM 45.5 °F 42.5 °F 42.1 °F 88% 30.13 in 10.0 mi NNW 5.8 mph - N/A   Clear
2:55 AM 45.5 °F 44.2 °F 42.3 °F 88% 30.12 in 10.0 mi NNW 3.5 mph - N/A   Clear
3:15 AM 44.2 °F - 41.2 °F 89% 30.12 in 10.0 mi Calm Calm - N/A   Clear
3:35 AM 43.9 °F - 41.4 °F 91% 30.13 in 10.0 mi Calm Calm - N/A   Clear
3:55 AM 43.9 °F - 41.2 °F 90% 30.13 in 10.0 mi Calm Calm - N/A   Clear
4:15 AM 44.2 °F 42.7 °F 40.5 °F 87% 30.13 in 10.0 mi NNW 3.5 mph - N/A   Clear
4:35 AM 44.2 °F 41.0 °F 40.3 °F 86% 30.14 in 10.0 mi NNW 5.8 mph - N/A   Clear
4:55 AM 44.2 °F 40.3 °F 40.1 °F 85% 30.14 in 10.0 mi NNW 6.9 mph - N/A   Clear
5:15 AM 45.3 °F 41.1 °F 40.5 °F 83% 30.13 in 10.0 mi NNW 8.1 mph - N/A   Clear
5:35 AM 44.2 °F 41.0 °F 40.1 °F 85% 30.14 in 10.0 mi NNW 5.8 mph - N/A   Clear
5:55 AM 43.7 °F 40.3 °F 39.7 °F 86% 30.15 in 10.0 mi NNW 5.8 mph - N/A   Clear
6:15 AM 43.0 °F - 39.2 °F 86% 30.17 in 10.0 mi Calm Calm - N/A   Clear
6:35 AM 42.1 °F 37.7 °F 38.3 °F 86% 30.17 in 10.0 mi NNW 6.9 mph - N/A   Clear
6:55 AM 44.8 °F 41.6 °F 38.5 °F 79% 30.17 in 10.0 mi NW 5.8 mph - N/A   Clear
7:15 AM 45.0 °F 41.2 °F 37.8 °F 76% 30.19 in 10.0 mi NW 6.9 mph - N/A   Clear
7:35 AM 46.4 °F 43.5 °F 37.6 °F 71% 30.19 in 10.0 mi NW 5.8 mph - N/A   Clear
7:55 AM 44.6 °F 43.1 °F 37.2 °F 75% 30.20 in 10.0 mi NNW 3.5 mph - N/A   Clear
8:15 AM 48.6 °F - 38.8 °F 69% 30.21 in 10.0 mi NW 5.8 mph - N/A   Clear
8:35 AM 51.1 °F - 39.6 °F 65% 30.22 in 10.0 mi NW 6.9 mph - N/A   Clear
8:55 AM 53.4 °F - 38.7 °F 57% 30.22 in 10.0 mi NW 8.1 mph - N/A   Clear
9:15 AM 56.3 °F - 37.8 °F 50% 30.23 in 10.0 mi NW 12.7 mph - N/A   Clear
9:35 AM 56.8 °F - 37.2 °F 48% 30.24 in 10.0 mi NW 11.5 mph - N/A   Clear
9:55 AM 58.8 °F - 36.5 °F 43% 30.23 in 10.0 mi NW 10.4 mph 16.1 mph N/A   Clear
10:15 AM 61.5 °F - 30.6 °F 31% 30.23 in 10.0 mi NNW 15.0 mph 24.2 mph N/A   Clear
10:35 AM 63.1 °F - 28.2 °F 27% 30.24 in 10.0 mi NNW 15.0 mph 27.6 mph N/A   Clear
10:55 AM 63.9 °F - 26.1 °F 24% 30.24 in 10.0 mi NNW 17.3 mph 29.9 mph N/A   Clear
11:15 AM 66.0 °F - 25.3 °F 22% 30.24 in 10.0 mi NNW 18.4 mph 25.3 mph N/A   Clear
11:35 AM 67.3 °F - 24.6 °F 20% 30.25 in 10.0 mi NNW 21.9 mph 26.5 mph N/A   Clear
11:55 AM 68.9 °F - 23.4 °F 18% 30.26 in 10.0 mi NNW 17.3 mph 27.6 mph N/A   Clear
12:15 PM 70.7 °F - 23.0 °F 17% 30.26 in 10.0 mi NNW 17.3 mph 27.6 mph N/A   Clear
12:35 PM 71.6 °F - 22.6 °F 16% 30.25 in 10.0 mi NNW 20.7 mph 29.9 mph N/A   Clear
12:55 PM 71.6 °F - 24.1 °F 17% 30.24 in 10.0 mi North 13.8 mph 26.5 mph N/A   Clear
1:15 PM 71.6 °F - 21.6 °F 15% 30.24 in 10.0 mi North 17.3 mph 25.3 mph N/A   Clear
1:35 PM 72.5 °F - 20.3 °F 14% 30.23 in 10.0 mi NNW 21.9 mph 28.8 mph N/A   Clear
1:55 PM 73.0 °F - 20.8 °F 14% 30.22 in 10.0 mi North 19.6 mph 26.5 mph N/A   Clear
2:15 PM 73.9 °F - 21.7 °F 14% 30.22 in 10.0 mi NNW 20.7 mph 28.8 mph N/A   Clear
2:35 PM 74.3 °F - 22.1 °F 14% 30.20 in 10.0 mi NNW 19.6 mph 26.5 mph N/A   Clear
2:55 PM 73.9 °F - 22.1 °F 14% 30.19 in 10.0 mi NNW 20.7 mph 28.8 mph N/A   Clear
3:15 PM 76.5 °F - 23.0 °F 14% 30.18 in 10.0 mi NNW 19.6 mph 28.8 mph N/A   Clear
3:35 PM 76.3 °F - 22.8 °F 14% 30.18 in 10.0 mi NNW 17.3 mph 28.8 mph 0.03 in   Clear
3:55 PM 76.5 °F - 23.2 °F 14% 30.17 in 10.0 mi NNW 16.1 mph 29.9 mph 0.03 in   Clear
4:15 PM 76.5 °F - 23.7 °F 14% 30.16 in 10.0 mi NNW 18.4 mph 26.5 mph N/A   Clear
4:35 PM 76.5 °F - 22.5 °F 13% 30.16 in 10.0 mi NW 19.6 mph 26.5 mph N/A   Clear
4:55 PM 76.5 °F - 23.4 °F 14% 30.15 in 10.0 mi NNW 13.8 mph 19.6 mph N/A   Clear
5:15 PM 76.5 °F - 23.2 °F 14% 30.15 in 10.0 mi NW 12.7 mph 20.7 mph N/A   Clear
5:35 PM 76.5 °F - 22.5 °F 13% 30.15 in 10.0 mi NNW 10.4 mph 28.8 mph N/A   Clear
5:55 PM 76.5 °F - 22.8 °F 14% 30.15 in 10.0 mi NW 11.5 mph 19.6 mph N/A   Clear
6:15 PM 76.5 °F - 23.2 °F 14% 30.14 in 10.0 mi NNW 13.8 mph 25.3 mph N/A   Clear
6:35 PM 76.5 °F - 23.7 °F 14% 30.14 in 10.0 mi North 11.5 mph - N/A   Scattered Clouds
6:55 PM 76.5 °F - 23.9 °F 14% 30.15 in 10.0 mi NW 9.2 mph - N/A   Scattered Clouds
7:15 PM 73.9 °F - 23.7 °F 15% 30.15 in 10.0 mi North 8.1 mph - N/A   Clear
7:35 PM 73.4 °F - 23.2 °F 15% 30.16 in 10.0 mi NNW 6.9 mph - N/A   Clear
7:55 PM 71.6 °F - 26.2 °F 18% 30.16 in 10.0 mi North 4.6 mph - N/A   Clear
8:15 PM 68.9 °F - 24.8 °F 19% 30.17 in 10.0 mi Calm Calm - N/A   Clear
8:35 PM 62.6 °F - 27.3 °F 26% 30.17 in 10.0 mi Calm Calm - N/A   Clear
8:55 PM 61.0 °F - 29.5 °F 30% 30.18 in 10.0 mi NNE 3.5 mph - N/A   Clear
9:15 PM 58.5 °F - 29.3 °F 33% 30.19 in 10.0 mi Calm Calm - N/A   Clear
9:35 PM 56.3 °F - 30.6 °F 38% 30.20 in 10.0 mi NNW 3.5 mph - N/A   Clear
9:55 PM 56.5 °F - 29.8 °F 36% 30.20 in 10.0 mi Calm Calm - N/A   Clear
10:15 PM 55.4 °F - 31.3 °F 40% 30.21 in 10.0 mi Calm Calm - N/A   Clear
10:35 PM 53.1 °F - 31.3 °F 43% 30.22 in 10.0 mi Calm Calm - N/A   Clear
10:55 PM 51.1 °F - 32.0 °F 48% 30.22 in 10.0 mi Calm Calm - N/A   Clear
11:15 PM 49.6 °F - 32.4 °F 51% 30.22 in 10.0 mi North 4.6 mph - N/A   Clear
11:35 PM 49.8 °F - 33.8 °F 54% 30.22 in 10.0 mi North 4.6 mph - N/A   Clear
11:55 PM 48.9 °F - 33.8 °F 56% 30.22 in 10.0 mi North 3.5 mph - N/A   Clear